Regional Weather Roundup
Issued by NWS Sioux Falls, SD

Home | Current Version | Previous Version | Text Only | Print | Product List | Glossary Off
Versions: 1 2 3 4 5 6 7 8 9 10 11 12 13 14 15 16 17 18 19 20 21 22 23 24 25 26 27 28 29 30 31 32 33 34 35 36 37 38 39 40 41 42 43 44 45 46 47 48 49 50

000
ASUS43 KFSD 181902
RWRFSD

WEATHER ROUNDUP FOR SE SOUTH DAKOTA/SW MINNESOTA/NW IOWA
NATIONAL WEATHER SERVICE SIOUX FALLS SD
200 PM CDT TUE JUN 18 2019

NOTE: "FAIR" INDICATES FEW OR NO CLOUDS BELOW 12,000 FEET WITH NO
SIGNIFICANT WEATHER AND OR OBSTRUCTIONS TO VISIBILITY.


SDZ038>040-050-052>070-182000-
SOUTHEAST SOUTH DAKOTA

CITY           SKY/WX    TMP DP  RH WIND       PRES   REMARKS
BROOKINGS      PTSUNNY   69  52  54 VRB3      29.99F
CHAMBERLAIN    PTSUNNY   74  58  59 SE3       30.00S
HURON          FAIR      74  52  46 VRB6      29.98F
MITCHELL       FAIR      73  52  47 NE8       29.99F
SIOUX FALLS    PTSUNNY   73  50  44 N7        29.98F
WINNER         FAIR      75  53  46 E7        30.00F
YANKTON        SUNNY     73  51  46 VRB7      29.98F
$$

MNZ071-072-080-081-089-090-097-098-182000-
SOUTHWEST MINNESOTA

CITY           SKY/WX    TMP DP  RH WIND       PRES   REMARKS
FAIRMONT       PTSUNNY   70  51  51 NW8       29.97F
JACKSON        MOSUNNY   70  50  49 VRB7      29.99S
LUVERNE        SUNNY     70  45  40 NE9       29.99S
MARSHALL       PTSUNNY   71  52  50 N5        29.98F
PIPESTONE      SUNNY     70  50  49 N3        29.99F
REDWOOD FALLS    N/A    N/A N/A N/A MISG      29.95F
WORTHINGTON    PTSUNNY   69  50  50 VRB6      29.99F
$$

IAZ001>003-012>014-020>022-031-032-NEZ013-014-SDZ071-182000-
NORTHWEST IOWA

CITY           SKY/WX    TMP DP  RH WIND       PRES   REMARKS
CHEROKEE       PTSUNNY   68  59  71 NE3       29.98F
DENISON        PTSUNNY   66  64  94 NE8       29.97F
ESTHERVILLE    MOSUNNY   71  55  56 N7        29.97F
LE MARS        SUNNY     72  55  56 CALM      29.97F
MAURICE        FAIR      72  50  46 VRB6      29.97S
SHELDON        SUNNY     72  48  43 N9        29.96F
SIOUX CITY     CLOUDY    67  58  72 E5        29.98F
SPENCER        SUNNY     74  51  44 N9        29.97F
STORM LAKE     SUNNY     66  61  82 NE5       29.95F
$$

ABBREVIATIONS USED IN REMARKS
   TC - TEMPERATURE IN CELSIUS
  WCI - WIND CHILL INDEX
   HX - HEAT INDEX
  VSB - VISIBILITY





USA.gov is the U.S. government's official web portal to all federal, state and local government web resources and services.